Time,TemperatureF,DewpointF,PressureIn,WindDirection,WindDirectionDegrees,WindSpeedMPH,WindSpeedGustMPH,Humidity,HourlyPrecipIn,Conditions,Clouds,dailyrainin,SoftwareType,DateUTC
2013-02-08 00:00:00,34.8,28.6,29.93,North,360,5.0,12.0,78,0.00,SCT,SCT,0.00,WeatherDisplay:10.37,2013-02-08 05:00:00,
2013-02-08 00:05:00,34.9,28.7,29.92,North,360,5.8,11.5,78,0.00,BKN,,0.00,WeatherDisplay:10.37,2013-02-08 05:05:00,
2013-02-08 00:10:00,34.9,28.7,29.92,North,360,6.6,9.2,78,0.00,BKN,,0.00,WeatherDisplay:10.37,2013-02-08 05:10:00,
2013-02-08 00:15:00,34.8,29.0,29.92,North,360,4.1,5.8,79,0.00,BKN,,0.00,WeatherDisplay:10.37,2013-02-08 05:15:00,
2013-02-08 00:20:00,34.8,29.0,29.92,North,360,5.3,11.5,79,0.00,BKN,,0.00,WeatherDisplay:10.37,2013-02-08 05:20:00,
2013-02-08 00:25:00,34.8,29.0,29.92,North,360,2.9,4.6,79,0.00,BKN,,0.00,WeatherDisplay:10.37,2013-02-08 05:25:00,
2013-02-08 00:30:00,34.7,28.9,29.92,North,360,6.0,9.2,79,0.00,BKN,,0.00,WeatherDisplay:10.37,2013-02-08 05:30:00,
2013-02-08 00:35:00,34.6,28.8,29.92,North,360,5.4,10.4,79,0.00,BKN,,0.00,WeatherDisplay:10.37,2013-02-08 05:35:00,
2013-02-08 00:40:00,34.5,28.7,29.92,North,360,5.6,11.5,79,0.00,BKN,,0.00,WeatherDisplay:10.37,2013-02-08 05:40:00,
2013-02-08 00:45:00,34.5,28.7,29.92,North,360,5.0,9.2,79,0.00,BKN,,0.00,WeatherDisplay:10.37,2013-02-08 05:45:00,
2013-02-08 00:50:00,34.5,29.0,29.91,North,360,6.5,9.2,80,0.00,BKN,,0.00,WeatherDisplay:10.37,2013-02-08 05:50:00,
2013-02-08 00:55:00,34.5,29.0,29.91,North,360,7.4,11.5,80,0.00,BKN,,0.00,WeatherDisplay:10.37,2013-02-08 05:55:00,
2013-02-08 01:00:00,34.6,29.1,29.91,North,360,3.4,9.2,80,0.00,BKN,,0.00,WeatherDisplay:10.37,2013-02-08 06:00:00,
2013-02-08 01:05:00,34.6,29.1,29.90,North,360,6.3,11.5,80,0.00,FEW,,0.00,WeatherDisplay:10.37,2013-02-08 06:05:00,
2013-02-08 01:10:00,34.6,29.1,29.90,North,360,4.8,6.9,80,0.00,FEW,,0.00,WeatherDisplay:10.37,2013-02-08 06:10:00,
2013-02-08 01:15:00,34.7,29.2,29.90,North,360,4.1,6.9,80,0.00,FEW,,0.00,WeatherDisplay:10.37,2013-02-08 06:15:00,
2013-02-08 01:20:00,34.7,29.2,29.89,North,360,6.9,11.5,80,0.00,FEW,,0.00,WeatherDisplay:10.37,2013-02-08 06:20:00,
2013-02-08 01:25:00,34.8,29.3,29.89,North,360,6.4,9.0,80,0.00,FEW,,0.00,WeatherDisplay:10.37,2013-02-08 06:25:00,
2013-02-08 01:30:00,34.8,29.3,29.89,North,360,5.5,10.4,80,0.00,FEW,,0.00,WeatherDisplay:10.37,2013-02-08 06:30:00,
2013-02-08 01:35:00,34.8,29.6,29.88,North,360,7.3,8.1,81,0.00,FEW,,0.00,WeatherDisplay:10.37,2013-02-08 06:35:00,
2013-02-08 01:40:00,34.9,29.7,29.88,North,360,5.4,10.4,81,0.00,FEW,,0.00,WeatherDisplay:10.37,2013-02-08 06:40:00,
2013-02-08 01:45:00,35.0,29.8,29.88,North,360,6.9,11.5,81,0.00,FEW,,0.00,WeatherDisplay:10.37,2013-02-08 06:45:00,
2013-02-08 01:50:00,35.1,29.9,29.88,North,360,3.8,8.1,81,0.00,FEW,,0.00,WeatherDisplay:10.37,2013-02-08 06:50:00,
2013-02-08 01:55:00,35.2,30.0,29.88,North,360,6.0,12.7,81,0.00,FEW,,0.00,WeatherDisplay:10.37,2013-02-08 06:55:00,
2013-02-08 02:00:00,35.3,30.1,29.88,North,360,5.1,8.1,81,0.00,FEW,,0.00,WeatherDisplay:10.37,2013-02-08 07:00:00,
2013-02-08 02:05:00,35.4,30.1,29.88,North,360,6.7,12.0,81,0.00,FEW,,0.00,WeatherDisplay:10.37,2013-02-08 07:05:00,
2013-02-08 02:10:00,35.5,30.2,29.88,North,360,6.2,11.5,81,0.00,FEW,,0.00,WeatherDisplay:10.37,2013-02-08 07:10:00,
2013-02-08 02:15:00,35.5,30.2,29.87,North,360,6.5,11.5,81,0.00,FEW,,0.00,WeatherDisplay:10.37,2013-02-08 07:15:00,
2013-02-08 02:20:00,35.5,30.2,29.86,North,360,6.4,12.7,81,0.00,FEW,,0.00,WeatherDisplay:10.37,2013-02-08 07:20:00,
2013-02-08 02:25:00,35.5,30.5,29.86,North,360,8.6,13.8,82,0.00,FEW,,0.00,WeatherDisplay:10.37,2013-02-08 07:25:00,
2013-02-08 02:30:00,35.5,30.5,29.85,North,360,7.5,17.3,82,0.00,FEW,,0.00,WeatherDisplay:10.37,2013-02-08 07:30:00,
2013-02-08 02:35:00,35.6,30.6,29.85,North,360,3.9,13.8,82,0.00,FEW,,0.00,WeatherDisplay:10.37,2013-02-08 07:35:00,
2013-02-08 02:40:00,35.6,30.6,29.85,North,360,2.2,11.5,82,0.00,FEW,,0.00,WeatherDisplay:10.37,2013-02-08 07:40:00,
2013-02-08 02:45:00,35.6,30.6,29.86,North,360,4.0,8.0,82,0.00,FEW,,0.00,WeatherDisplay:10.37,2013-02-08 07:45:00,
2013-02-08 02:50:00,35.6,30.6,29.86,North,360,4.9,7.0,82,0.00,FEW,,0.00,WeatherDisplay:10.37,2013-02-08 07:50:00,
2013-02-08 02:55:00,35.6,30.6,29.86,North,360,4.1,7.0,82,0.00,FEW,,0.00,WeatherDisplay:10.37,2013-02-08 07:55:00,
2013-02-08 03:00:00,35.7,30.7,29.85,North,360,5.3,8.1,82,0.00,FEW,,0.00,WeatherDisplay:10.37,2013-02-08 08:00:00,
2013-02-08 03:05:00,35.8,31.1,29.85,North,360,4.6,9.2,83,0.00,OVC,,0.00,WeatherDisplay:10.37,2013-02-08 08:05:00,
2013-02-08 03:10:00,35.9,31.2,29.84,North,360,3.3,6.0,83,0.00,OVC,,0.00,WeatherDisplay:10.37,2013-02-08 08:10:00,
2013-02-08 03:15:00,35.9,31.2,29.84,SSE,147,7.0,8.1,83,0.00,OVC,,0.00,WeatherDisplay:10.37,2013-02-08 08:15:00,
2013-02-08 03:20:00,36.1,31.4,29.84,South,175,4.1,6.0,83,0.00,OVC,,0.00,WeatherDisplay:10.37,2013-02-08 08:20:00,
2013-02-08 03:25:00,36.1,31.1,29.83,East,96,4.9,11.5,82,0.00,OVC,,0.00,WeatherDisplay:10.37,2013-02-08 08:25:00,
2013-02-08 03:30:00,36.2,31.2,29.83,SSE,157,4.7,9.2,82,0.00,OVC,,0.00,WeatherDisplay:10.37,2013-02-08 08:30:00,
2013-02-08 03:35:00,36.1,31.1,29.83,South,171,7.6,15.0,82,0.00,OVC,,0.00,WeatherDisplay:10.37,2013-02-08 08:35:00,
2013-02-08 03:40:00,36.1,31.1,29.82,SSE,160,7.5,17.3,82,0.00,OVC,,0.00,WeatherDisplay:10.37,2013-02-08 08:40:00,
2013-02-08 03:45:00,36.1,31.1,29.81,South,178,5.8,10.4,82,0.00,OVC,,0.00,WeatherDisplay:10.37,2013-02-08 08:45:00,
2013-02-08 03:50:00,36.1,31.4,29.82,SE,124,6.6,12.0,83,0.00,OVC,,0.00,WeatherDisplay:10.37,2013-02-08 08:50:00,
2013-02-08 03:55:00,36.2,31.2,29.82,SSE,157,7.2,11.5,82,0.00,OVC,,0.00,WeatherDisplay:10.37,2013-02-08 08:55:00,
2013-02-08 04:00:00,36.1,31.1,29.82,South,191,4.7,9.2,82,0.00,OVC,,0.00,WeatherDisplay:10.37,2013-02-08 09:00:00,
2013-02-08 04:05:00,36.1,31.4,29.82,South,180,6.8,11.5,83,0.00,OVC,,0.00,WeatherDisplay:10.37,2013-02-08 09:05:00,
2013-02-08 04:10:00,36.1,31.4,29.82,South,187,5.8,11.0,83,0.00,OVC,,0.00,WeatherDisplay:10.37,2013-02-08 09:10:00,
2013-02-08 04:15:00,36.2,31.5,29.82,South,172,7.5,10.4,83,0.00,OVC,,0.00,WeatherDisplay:10.37,2013-02-08 09:15:00,
2013-02-08 04:20:00,36.4,31.7,29.82,SSW,198,5.9,11.5,83,0.00,OVC,,0.00,WeatherDisplay:10.37,2013-02-08 09:20:00,
2013-02-08 04:25:00,36.4,31.7,29.82,ESE,115,5.6,16.1,83,0.00,OVC,,0.00,WeatherDisplay:10.37,2013-02-08 09:25:00,
2013-02-08 04:30:00,36.5,31.8,29.81,SSE,158,8.9,11.5,83,0.00,OVC,,0.00,WeatherDisplay:10.37,2013-02-08 09:30:00,
2013-02-08 04:35:00,36.6,31.6,29.81,SSE,153,5.5,12.7,82,0.00,OVC,,0.00,WeatherDisplay:10.37,2013-02-08 09:35:00,
2013-02-08 04:40:00,36.6,31.6,29.81,SSE,165,4.4,5.8,82,0.00,OVC,,0.00,WeatherDisplay:10.37,2013-02-08 09:40:00,
2013-02-08 04:45:00,36.6,31.6,29.81,South,184,4.4,9.2,82,0.00,OVC,,0.00,WeatherDisplay:10.37,2013-02-08 09:45:00,
2013-02-08 04:50:00,36.6,31.6,29.80,SSE,159,6.2,12.7,82,0.00,OVC,,0.00,WeatherDisplay:10.37,2013-02-08 09:50:00,
2013-02-08 04:55:00,36.6,31.6,29.80,ESE,121,6.6,12.7,82,0.00,OVC,,0.00,WeatherDisplay:10.37,2013-02-08 09:55:00,
2013-02-08 05:00:00,36.6,31.6,29.80,SE,139,8.4,13.0,82,0.00,OVC,,0.00,WeatherDisplay:10.37,2013-02-08 10:00:00,
2013-02-08 05:05:00,36.7,32.0,29.80,SSW,194,5.7,9.2,83,0.00,OVC,,0.00,WeatherDisplay:10.37,2013-02-08 10:05:00,
2013-02-08 05:10:00,36.6,31.6,29.80,South,184,2.8,6.9,82,0.00,OVC,,0.00,WeatherDisplay:10.37,2013-02-08 10:10:00,
2013-02-08 05:15:00,36.6,31.6,29.80,South,174,2.6,4.6,82,0.00,OVC,,0.00,WeatherDisplay:10.37,2013-02-08 10:15:00,
2013-02-08 05:20:00,36.6,31.6,29.80,SSE,159,3.2,11.5,82,0.00,OVC,,0.00,WeatherDisplay:10.37,2013-02-08 10:20:00,
2013-02-08 05:25:00,36.6,31.6,29.79,SSE,149,6.3,13.8,82,0.00,OVC,,0.00,WeatherDisplay:10.37,2013-02-08 10:25:00,
2013-02-08 05:30:00,36.7,31.7,29.79,SSE,155,6.0,15.0,82,0.00,OVC,,0.00,WeatherDisplay:10.37,2013-02-08 10:30:00,
2013-02-08 05:35:00,36.7,31.7,29.79,SSE,152,2.5,11.5,82,0.00,OVC,,0.00,WeatherDisplay:10.37,2013-02-08 10:35:00,
2013-02-08 05:40:00,36.7,31.7,29.79,South,182,5.3,10.4,82,0.00,OVC,,0.00,WeatherDisplay:10.37,2013-02-08 10:40:00,
2013-02-08 05:45:00,36.7,32.0,29.78,SSE,155,5.2,10.4,83,0.00,OVC,,0.00,WeatherDisplay:10.37,2013-02-08 10:45:00,
2013-02-08 05:50:00,36.7,32.0,29.78,SSE,163,6.2,9.2,83,0.00,OVC,,0.00,WeatherDisplay:10.37,2013-02-08 10:50:00,
2013-02-08 05:55:00,36.8,32.1,29.78,SE,145,4.8,15.0,83,0.00,OVC,,0.00,WeatherDisplay:10.37,2013-02-08 10:55:00,
2013-02-08 06:00:00,36.8,32.1,29.78,SE,142,9.3,17.3,83,0.00,OVC,,0.00,WeatherDisplay:10.37,2013-02-08 11:00:00,
2013-02-08 06:05:00,36.9,32.2,29.78,South,188,7.1,12.7,83,0.00,OVC,,0.00,WeatherDisplay:10.37,2013-02-08 11:05:00,
2013-02-08 06:10:00,37.0,32.3,29.77,SSW,211,3.7,12.7,83,0.00,OVC,,0.00,WeatherDisplay:10.37,2013-02-08 11:10:00,
2013-02-08 06:15:00,37.1,32.4,29.77,SSE,163,4.4,6.9,83,0.00,OVC,,0.00,WeatherDisplay:10.37,2013-02-08 11:15:00,
2013-02-08 06:20:00,37.1,32.4,29.77,SSW,194,6.6,10.4,83,0.00,OVC,,0.00,WeatherDisplay:10.37,2013-02-08 11:20:00,
2013-02-08 06:25:00,37.2,32.5,29.77,SSW,194,5.2,10.0,83,0.00,OVC,,0.00,WeatherDisplay:10.37,2013-02-08 11:25:00,
2013-02-08 06:30:00,37.2,32.5,29.77,South,187,9.2,12.7,83,0.00,OVC,,0.00,WeatherDisplay:10.37,2013-02-08 11:30:00,
2013-02-08 06:35:00,37.3,32.9,29.77,South,175,4.7,8.1,84,0.00,OVC,,0.00,WeatherDisplay:10.37,2013-02-08 11:35:00,
2013-02-08 06:40:00,37.4,33.0,29.77,SW,221,7.0,9.2,84,0.00,OVC,,0.00,WeatherDisplay:10.37,2013-02-08 11:40:00,
2013-02-08 06:45:00,37.5,33.1,29.77,SW,227,5.8,11.0,84,0.00,OVC,,0.00,WeatherDisplay:10.37,2013-02-08 11:45:00,
2013-02-08 06:50:00,37.5,32.8,29.77,SE,146,4.4,9.2,83,0.00,OVC,,0.00,WeatherDisplay:10.37,2013-02-08 11:50:00,
2013-02-08 06:55:00,37.5,33.1,29.77,South,170,8.4,11.5,84,0.00,OVC,,0.00,WeatherDisplay:10.37,2013-02-08 11:55:00,
2013-02-08 07:00:00,37.4,33.0,29.77,South,175,4.5,9.2,84,0.00,OVC,,0.00,WeatherDisplay:10.37,2013-02-08 12:00:00,
2013-02-08 07:05:00,37.4,33.3,29.77,South,173,6.4,11.5,85,0.00,-RA,,0.00,WeatherDisplay:10.37,2013-02-08 12:05:00,
2013-02-08 07:10:00,37.3,33.5,29.77,SSE,161,6.4,10.4,86,0.01,-RA,,0.01,WeatherDisplay:10.37,2013-02-08 12:10:00,
2013-02-08 07:15:00,37.1,33.6,29.77,SSW,202,4.8,10.4,87,0.01,-RA,,0.01,WeatherDisplay:10.37,2013-02-08 12:15:00,
2013-02-08 07:20:00,37.0,33.8,29.77,South,184,9.4,15.0,88,0.02,-RA,,0.02,WeatherDisplay:10.37,2013-02-08 12:20:00,
2013-02-08 07:25:00,36.8,33.6,29.77,South,188,5.3,8.1,88,0.03,-RA,,0.03,WeatherDisplay:10.37,2013-02-08 12:25:00,
2013-02-08 07:30:00,36.7,33.8,29.77,South,174,4.2,8.1,89,0.03,-RA,,0.03,WeatherDisplay:10.37,2013-02-08 12:30:00,
2013-02-08 07:35:00,36.6,33.9,29.77,SSE,153,4.5,7.0,90,0.04,-RA,,0.04,WeatherDisplay:10.37,2013-02-08 12:35:00,
2013-02-08 07:41:00,36.5,34.1,29.77,South,188,4.9,6.9,91,0.05,-RA,,0.05,WeatherDisplay:10.37,2013-02-08 12:41:00,
2013-02-08 07:46:00,36.4,34.0,29.77,South,173,4.9,9.2,91,0.05,-RA,,0.06,WeatherDisplay:10.37,2013-02-08 12:46:00,
2013-02-08 07:51:00,36.4,34.3,29.78,South,170,4.1,8.0,92,0.06,-RA,,0.06,WeatherDisplay:10.37,2013-02-08 12:51:00,
2013-02-08 07:56:00,36.3,34.2,29.78,SSE,155,4.3,6.9,92,0.07,-RA,,0.07,WeatherDisplay:10.37,2013-02-08 12:56:00,
2013-02-08 08:01:00,36.3,34.2,29.77,South,184,5.9,9.0,92,0.09,-RA,,0.09,WeatherDisplay:10.37,2013-02-08 13:01:00,
2013-02-08 08:06:00,36.3,34.5,29.78,SSW,195,4.2,6.9,93,0.09,-RA,,0.10,WeatherDisplay:10.37,2013-02-08 13:06:00,
2013-02-08 08:11:00,36.2,34.4,29.77,SSE,165,6.0,10.4,93,0.09,-RA,,0.11,WeatherDisplay:10.37,2013-02-08 13:11:00,
2013-02-08 08:16:00,36.2,34.4,29.77,SSW,203,6.5,10.4,93,0.10,-RA,,0.11,WeatherDisplay:10.37,2013-02-08 13:16:00,
2013-02-08 08:21:00,36.3,34.7,29.77,SSE,167,4.7,6.9,94,0.10,-RA,,0.12,WeatherDisplay:10.37,2013-02-08 13:21:00,
2013-02-08 08:26:00,36.3,34.7,29.77,SSE,164,3.1,9.2,94,0.10,-RA,,0.13,WeatherDisplay:10.37,2013-02-08 13:26:00,
2013-02-08 08:31:00,36.3,34.7,29.77,SSE,157,4.2,15.0,94,0.11,-RA,,0.14,WeatherDisplay:10.37,2013-02-08 13:31:00,
2013-02-08 08:36:00,36.3,34.7,29.78,SSW,197,3.6,4.6,94,0.11,-RA,,0.15,WeatherDisplay:10.37,2013-02-08 13:36:00,
2013-02-08 08:41:00,36.3,34.7,29.78,SSW,207,3.4,9.0,94,0.11,-RA,,0.16,WeatherDisplay:10.37,2013-02-08 13:41:00,
2013-02-08 08:46:00,36.3,34.7,29.78,South,178,4.5,7.0,94,0.12,-RA,,0.17,WeatherDisplay:10.37,2013-02-08 13:46:00,
2013-02-08 08:51:00,36.3,35.0,29.78,South,180,4.2,9.2,95,0.12,-RA,,0.18,WeatherDisplay:10.37,2013-02-08 13:51:00,
2013-02-08 08:56:00,36.3,35.0,29.78,SSW,210,2.4,4.6,95,0.12,-RA,,0.19,WeatherDisplay:10.37,2013-02-08 13:56:00,
2013-02-08 09:01:00,36.3,35.0,29.78,South,186,6.5,9.2,95,0.10,-RA,,0.19,WeatherDisplay:10.37,2013-02-08 14:01:00,
2013-02-08 09:06:00,36.3,35.0,29.78,SSW,201,4.6,6.9,95,0.11,-RA,,0.20,WeatherDisplay:10.37,2013-02-08 14:06:00,
2013-02-08 09:11:00,36.4,35.1,29.77,SW,217,3.7,9.2,95,0.11,-RA,,0.21,WeatherDisplay:10.37,2013-02-08 14:11:00,
2013-02-08 09:16:00,36.4,35.1,29.77,SW,231,3.0,4.6,95,0.10,-RA,,0.21,WeatherDisplay:10.37,2013-02-08 14:16:00,
2013-02-08 09:21:00,36.4,35.1,29.78,South,182,7.7,10.4,95,0.10,-RA,,0.22,WeatherDisplay:10.37,2013-02-08 14:21:00,
2013-02-08 09:26:00,36.4,35.4,29.78,SSW,202,3.0,3.5,96,0.09,-RA,,0.22,WeatherDisplay:10.37,2013-02-08 14:26:00,
2013-02-08 09:31:00,36.4,35.4,29.77,South,190,2.9,8.1,96,0.09,-RA,,0.23,WeatherDisplay:10.37,2013-02-08 14:31:00,
2013-02-08 09:36:00,36.4,35.4,29.77,SSW,196,3.0,6.9,96,0.09,-RA,,0.23,WeatherDisplay:10.37,2013-02-08 14:36:00,
2013-02-08 09:41:00,36.4,35.4,29.77,South,180,4.4,6.9,96,0.08,-RA,,0.23,WeatherDisplay:10.37,2013-02-08 14:41:00,
2013-02-08 09:46:00,36.4,35.4,29.78,SSW,209,3.2,6.9,96,0.06,-RA,,0.23,WeatherDisplay:10.37,2013-02-08 14:46:00,
2013-02-08 09:51:00,36.4,35.4,29.77,SSW,201,5.4,6.9,96,0.05,-RA,,0.23,WeatherDisplay:10.37,2013-02-08 14:51:00,
2013-02-08 09:56:00,36.5,35.5,29.77,SW,218,3.1,6.9,96,0.04,-RA,,0.23,WeatherDisplay:10.37,2013-02-08 14:56:00,
2013-02-08 10:01:00,36.4,35.4,29.77,SW,217,2.8,5.8,96,0.05,-RA,,0.24,WeatherDisplay:10.37,2013-02-08 15:01:00,
2013-02-08 10:06:00,36.4,35.4,29.78,SSW,207,1.8,3.5,96,0.04,-RA,,0.24,WeatherDisplay:10.37,2013-02-08 15:06:00,
2013-02-08 10:11:00,36.5,35.7,29.78,SW,225,3.2,3.5,97,0.04,-RA,,0.24,WeatherDisplay:10.37,2013-02-08 15:11:00,
2013-02-08 10:16:00,36.6,35.8,29.78,SW,229,4.9,6.0,97,0.03,-RA,,0.24,WeatherDisplay:10.37,2013-02-08 15:16:00,
2013-02-08 10:21:00,36.7,35.9,29.78,SW,236,6.5,10.4,97,0.02,-RA,,0.24,WeatherDisplay:10.37,2013-02-08 15:21:00,
2013-02-08 10:26:00,36.8,36.0,29.78,WNW,285,6.8,12.7,97,0.02,-RA,,0.25,WeatherDisplay:10.37,2013-02-08 15:26:00,
2013-02-08 10:31:00,36.8,36.0,29.79,West,271,7.8,11.5,97,0.03,-RA,,0.25,WeatherDisplay:10.37,2013-02-08 15:31:00,
2013-02-08 10:36:00,36.7,35.7,29.78,WNW,298,5.6,11.5,96,0.02,-RA,,0.25,WeatherDisplay:10.37,2013-02-08 15:36:00,
2013-02-08 10:41:00,36.6,35.6,29.79,WNW,284,4.2,6.9,96,0.02,-RA,,0.25,WeatherDisplay:10.37,2013-02-08 15:41:00,
2013-02-08 10:46:00,36.5,35.5,29.79,WNW,285,7.1,11.5,96,0.02,-RA,,0.25,WeatherDisplay:10.37,2013-02-08 15:46:00,
2013-02-08 10:51:00,36.3,35.3,29.80,West,269,7.5,11.5,96,0.02,-RA,,0.25,WeatherDisplay:10.37,2013-02-08 15:51:00,
2013-02-08 10:56:00,36.1,34.8,29.80,West,273,8.6,12.7,95,0.02,-RA,,0.25,WeatherDisplay:10.37,2013-02-08 15:56:00,
2013-02-08 11:01:00,35.7,33.9,29.80,WSW,257,13.2,19.6,93,0.01,-RA,,0.25,WeatherDisplay:10.37,2013-02-08 16:01:00,
2013-02-08 11:06:00,35.3,33.5,29.81,WNW,290,8.3,12.7,93,0.01,-RA,,0.25,WeatherDisplay:10.37,2013-02-08 16:06:00,
2013-02-08 11:11:00,35.1,33.3,29.81,WNW,294,11.8,12.7,93,0.01,-RA,,0.25,WeatherDisplay:10.37,2013-02-08 16:11:00,
2013-02-08 11:16:00,34.9,32.8,29.81,NNW,329,10.4,13.8,92,0.01,-RA,,0.25,WeatherDisplay:10.37,2013-02-08 16:16:00,
2013-02-08 11:21:00,34.6,32.2,29.81,West,267,4.6,12.7,91,0.01,-RA,,0.25,WeatherDisplay:10.37,2013-02-08 16:21:00,
2013-02-08 11:26:00,34.5,32.1,29.81,WNW,296,7.7,12.7,91,0.01,-RA,,0.25,WeatherDisplay:10.37,2013-02-08 16:26:00,
2013-02-08 11:31:00,34.3,31.7,29.82,WNW,284,4.3,8.1,90,0.00,-RA,,0.25,WeatherDisplay:10.37,2013-02-08 16:31:00,
2013-02-08 11:36:00,34.3,31.9,29.82,WNW,286,5.5,11.5,91,0.00,-RA,,0.25,WeatherDisplay:10.37,2013-02-08 16:36:00,
2013-02-08 11:41:00,34.2,31.8,29.82,West,271,10.8,10.8,91,0.00,-RA,,0.25,WeatherDisplay:10.37,2013-02-08 16:41:00,
2013-02-08 11:46:00,33.9,31.3,29.82,West,259,11.3,11.3,90,0.00,-RA,,0.25,WeatherDisplay:10.37,2013-02-08 16:46:00,
2013-02-08 11:51:00,33.7,30.8,29.82,West,273,7.2,13.8,89,0.00,-RA,,0.25,WeatherDisplay:10.37,2013-02-08 16:51:00,
2013-02-08 11:56:00,33.5,30.6,29.82,West,274,8.1,15.0,89,0.00,-RA,,0.25,WeatherDisplay:10.37,2013-02-08 16:56:00,
2013-02-08 12:01:00,33.4,30.5,29.82,NW,313,9.3,9.3,89,0.00,-RA,,0.25,WeatherDisplay:10.37,2013-02-08 17:01:00,
2013-02-08 12:06:00,33.3,30.7,29.82,WNW,296,7.9,11.5,90,0.00,OVC,,0.25,WeatherDisplay:10.37,2013-02-08 17:06:00,
2013-02-08 12:11:00,33.2,30.3,29.82,WNW,292,5.6,11.5,89,0.00,OVC,,0.25,WeatherDisplay:10.37,2013-02-08 17:11:00,
2013-02-08 12:16:00,33.1,30.5,29.82,WNW,295,9.6,9.6,90,0.00,OVC,,0.25,WeatherDisplay:10.37,2013-02-08 17:16:00,
2013-02-08 12:21:00,33.0,30.4,29.82,WSW,256,7.8,11.5,90,0.00,OVC,,0.25,WeatherDisplay:10.37,2013-02-08 17:21:00,
2013-02-08 12:26:00,33.0,30.1,29.82,NW,313,4.8,11.5,89,0.00,OVC,,0.25,WeatherDisplay:10.37,2013-02-08 17:26:00,
2013-02-08 12:31:00,32.8,29.6,29.82,WNW,293,7.5,13.8,88,0.00,OVC,,0.25,WeatherDisplay:10.37,2013-02-08 17:31:00,
2013-02-08 12:36:00,32.7,29.5,29.83,West,273,10.6,12.7,88,0.00,OVC,,0.25,WeatherDisplay:10.37,2013-02-08 17:36:00,
2013-02-08 12:41:00,32.5,29.3,29.83,West,281,6.0,6.9,88,0.00,OVC,,0.25,WeatherDisplay:10.37,2013-02-08 17:41:00,
2013-02-08 12:46:00,32.3,29.1,29.83,West,281,8.3,16.1,88,0.00,OVC,,0.25,WeatherDisplay:10.37,2013-02-08 17:46:00,
2013-02-08 12:51:00,32.2,29.3,29.83,West,278,6.4,11.5,89,0.00,OVC,,0.25,WeatherDisplay:10.37,2013-02-08 17:51:00,
2013-02-08 12:56:00,32.1,29.5,29.84,WNW,292,7.9,9.2,90,0.00,OVC,,0.25,WeatherDisplay:10.37,2013-02-08 17:56:00,
2013-02-08 13:01:00,31.9,29.3,29.84,NW,321,7.1,9.0,90,0.00,OVC,,0.25,WeatherDisplay:10.37,2013-02-08 18:01:00,
2013-02-08 13:06:00,31.6,28.7,29.84,WNW,297,3.4,9.2,89,0.00,-SN,,0.25,WeatherDisplay:10.37,2013-02-08 18:06:00,
2013-02-08 13:11:00,31.4,28.5,29.85,NW,304,8.9,18.4,89,0.00,-SN,,0.25,WeatherDisplay:10.37,2013-02-08 18:11:00,
2013-02-08 13:16:00,30.8,27.9,29.85,West,273,7.1,19.6,89,0.00,-SN,,0.25,WeatherDisplay:10.37,2013-02-08 18:16:00,
2013-02-08 13:21:00,30.2,27.3,29.86,WNW,298,7.5,18.4,89,0.00,-SN,,0.25,WeatherDisplay:10.37,2013-02-08 18:21:00,
2013-02-08 13:26:00,30.0,27.4,29.86,NNW,336,10.1,12.0,90,0.00,-SN,,0.25,WeatherDisplay:10.37,2013-02-08 18:26:00,
2013-02-08 13:31:00,29.8,27.2,29.86,North,360,7.3,13.0,90,0.00,-SN,,0.25,WeatherDisplay:10.37,2013-02-08 18:31:00,
2013-02-08 13:36:00,29.6,26.8,29.87,North,360,10.0,17.3,89,0.00,-SN,,0.25,WeatherDisplay:10.37,2013-02-08 18:36:00,
2013-02-08 13:41:00,29.4,26.6,29.87,North,360,9.6,10.4,89,0.00,-SN,,0.25,WeatherDisplay:10.37,2013-02-08 18:41:00,
2013-02-08 13:46:00,29.2,26.4,29.88,North,360,7.0,12.7,89,0.00,-SN,,0.25,WeatherDisplay:10.37,2013-02-08 18:46:00,
2013-02-08 13:51:00,29.0,26.2,29.88,North,360,6.4,10.4,89,0.00,-SN,,0.25,WeatherDisplay:10.37,2013-02-08 18:51:00,
2013-02-08 13:56:00,28.8,25.7,29.89,North,360,8.4,12.0,88,0.00,-SN,,0.25,WeatherDisplay:10.37,2013-02-08 18:56:00,
2013-02-08 14:01:00,28.7,25.9,29.89,North,360,8.3,17.0,89,0.00,-SN,,0.25,WeatherDisplay:10.37,2013-02-08 19:01:00,
2013-02-08 14:06:00,28.6,25.8,29.89,North,360,5.7,9.2,89,0.00,-SN,,0.25,WeatherDisplay:10.37,2013-02-08 19:06:00,
2013-02-08 14:11:00,28.6,25.8,29.90,North,360,3.3,5.0,89,0.00,-SN,,0.25,WeatherDisplay:10.37,2013-02-08 19:11:00,
2013-02-08 14:16:00,28.6,26.0,29.90,North,360,5.6,11.0,90,0.00,-SN,,0.25,WeatherDisplay:10.37,2013-02-08 19:16:00,
2013-02-08 14:21:00,28.6,25.8,29.90,North,360,5.5,9.2,89,0.00,-SN,,0.25,WeatherDisplay:10.37,2013-02-08 19:21:00,
2013-02-08 14:26:00,28.5,25.7,29.90,North,360,4.5,6.9,89,0.00,-SN,,0.25,WeatherDisplay:10.37,2013-02-08 19:26:00,
2013-02-08 14:31:00,28.5,25.9,29.90,North,360,5.5,9.2,90,0.00,-SN,,0.25,WeatherDisplay:10.37,2013-02-08 19:31:00,
2013-02-08 14:36:00,28.2,25.1,29.91,North,360,4.0,7.0,88,0.00,-SN,,0.25,WeatherDisplay:10.37,2013-02-08 19:36:00,
2013-02-08 14:41:00,28.1,25.0,29.91,North,360,7.0,10.4,88,0.00,-SN,,0.25,WeatherDisplay:10.37,2013-02-08 19:41:00,
2013-02-08 14:46:00,28.0,25.2,29.91,North,360,5.1,6.9,89,0.00,-SN,,0.25,WeatherDisplay:10.37,2013-02-08 19:46:00,
2013-02-08 14:51:00,27.9,24.8,29.92,North,360,5.0,5.8,88,0.00,-SN,,0.25,WeatherDisplay:10.37,2013-02-08 19:51:00,
2013-02-08 14:56:00,27.8,24.4,29.92,North,360,6.2,14.0,87,0.00,-SN,,0.25,WeatherDisplay:10.37,2013-02-08 19:56:00,
2013-02-08 15:01:00,27.6,24.0,29.92,North,360,5.6,8.1,86,0.00,-SN,,0.25,WeatherDisplay:10.37,2013-02-08 20:01:00,
2013-02-08 15:06:00,27.5,23.9,29.93,North,360,5.6,10.0,86,0.00,-SN,,0.25,WeatherDisplay:10.37,2013-02-08 20:06:00,
2013-02-08 15:11:00,27.4,24.0,29.93,North,360,3.2,5.8,87,0.00,-SN,,0.25,WeatherDisplay:10.37,2013-02-08 20:11:00,
2013-02-08 15:16:00,27.4,24.0,29.93,North,360,4.4,6.9,87,0.00,-SN,,0.25,WeatherDisplay:10.37,2013-02-08 20:16:00,
2013-02-08 15:21:00,27.1,23.5,29.94,North,360,8.0,11.5,86,0.00,-SN,,0.25,WeatherDisplay:10.37,2013-02-08 20:21:00,
2013-02-08 15:26:00,26.9,23.5,29.94,North,360,7.0,11.5,87,0.00,-SN,,0.25,WeatherDisplay:10.37,2013-02-08 20:26:00,
2013-02-08 15:31:00,26.7,23.4,29.94,North,360,6.6,13.0,87,0.00,-SN,,0.25,WeatherDisplay:10.37,2013-02-08 20:31:00,
2013-02-08 15:36:00,26.6,23.5,29.95,North,360,4.5,6.9,88,0.00,-SN,,0.25,WeatherDisplay:10.37,2013-02-08 20:36:00,
2013-02-08 15:41:00,26.4,23.3,29.95,North,360,5.9,12.0,88,0.00,-SN,,0.25,WeatherDisplay:10.37,2013-02-08 20:41:00,
2013-02-08 15:46:00,26.0,22.4,29.96,WNW,297,9.1,15.0,86,0.00,-SN,,0.25,WeatherDisplay:10.37,2013-02-08 20:46:00,
2013-02-08 15:51:00,25.6,22.3,29.96,North,360,5.1,9.2,87,0.00,-SN,,0.25,WeatherDisplay:10.37,2013-02-08 20:51:00,
2013-02-08 15:56:00,25.3,22.0,29.97,NW,310,5.7,15.0,87,0.00,-SN,,0.25,WeatherDisplay:10.37,2013-02-08 20:56:00,
2013-02-08 16:01:00,25.1,22.0,29.97,North,360,5.8,10.4,88,0.00,-SN,,0.25,WeatherDisplay:10.37,2013-02-08 21:01:00,
2013-02-08 16:06:00,24.9,22.1,29.97,North,360,3.8,5.8,89,0.00,-SN,,0.25,WeatherDisplay:10.37,2013-02-08 21:06:00,
2013-02-08 16:11:00,24.9,22.1,29.97,North,360,5.9,8.1,89,0.00,-SN,,0.25,WeatherDisplay:10.37,2013-02-08 21:11:00,
2013-02-08 16:16:00,24.9,22.1,29.97,North,360,7.6,13.8,89,0.00,-SN,,0.25,WeatherDisplay:10.37,2013-02-08 21:16:00,
2013-02-08 16:21:00,25.1,22.3,29.98,North,360,3.8,8.1,89,0.00,-SN,,0.25,WeatherDisplay:10.37,2013-02-08 21:21:00,
2013-02-08 16:26:00,25.2,22.4,29.98,North,360,5.3,9.2,89,0.00,-SN,,0.25,WeatherDisplay:10.37,2013-02-08 21:26:00,
2013-02-08 16:31:00,25.2,22.4,29.98,North,360,6.4,10.4,89,0.00,-SN,,0.25,WeatherDisplay:10.37,2013-02-08 21:31:00,
2013-02-08 16:36:00,25.3,22.8,29.99,North,360,5.7,6.9,90,0.00,-SN,,0.25,WeatherDisplay:10.37,2013-02-08 21:36:00,
2013-02-08 16:41:00,25.3,22.8,29.99,North,360,3.8,8.1,90,0.00,-SN,,0.25,WeatherDisplay:10.37,2013-02-08 21:41:00,
2013-02-08 16:46:00,25.3,22.8,30.00,North,360,5.4,10.4,90,0.00,-SN,,0.25,WeatherDisplay:10.37,2013-02-08 21:46:00,
2013-02-08 16:51:00,25.2,22.7,30.00,North,360,6.1,7.0,90,0.00,-SN,,0.25,WeatherDisplay:10.37,2013-02-08 21:51:00,
2013-02-08 16:56:00,25.2,22.7,30.00,North,360,3.5,5.0,90,0.00,-SN,,0.25,WeatherDisplay:10.37,2013-02-08 21:56:00,
2013-02-08 17:01:00,25.3,23.0,30.01,North,360,6.5,11.5,91,0.00,-SN,,0.25,WeatherDisplay:10.37,2013-02-08 22:01:00,
2013-02-08 17:06:00,25.3,23.0,30.01,North,360,5.0,6.9,91,0.00,-SN,,0.25,WeatherDisplay:10.37,2013-02-08 22:06:00,
2013-02-08 17:11:00,25.3,22.8,30.01,North,360,4.6,8.1,90,0.00,-SN,,0.25,WeatherDisplay:10.37,2013-02-08 22:11:00,
2013-02-08 17:16:00,25.4,22.9,30.01,North,360,4.6,5.8,90,0.00,-SN,,0.25,WeatherDisplay:10.37,2013-02-08 22:16:00,
2013-02-08 17:21:00,25.4,22.6,30.02,North,360,8.5,11.5,89,0.00,-SN,,0.25,WeatherDisplay:10.37,2013-02-08 22:21:00,
2013-02-08 17:26:00,25.4,22.6,30.02,North,360,7.0,10.0,89,0.00,-SN,,0.25,WeatherDisplay:10.37,2013-02-08 22:26:00,
2013-02-08 17:31:00,25.5,22.7,30.02,North,360,6.7,11.5,89,0.00,-SN,,0.25,WeatherDisplay:10.37,2013-02-08 22:31:00,
2013-02-08 17:36:00,25.5,22.7,30.02,North,360,6.6,11.5,89,0.00,-SN,,0.25,WeatherDisplay:10.37,2013-02-08 22:36:00,
2013-02-08 17:41:00,25.6,22.8,30.03,North,360,4.9,9.2,89,0.00,-SN,,0.25,WeatherDisplay:10.37,2013-02-08 22:41:00,
2013-02-08 17:46:00,25.5,22.7,30.03,North,360,5.6,6.9,89,0.00,-SN,,0.25,WeatherDisplay:10.37,2013-02-08 22:46:00,
2013-02-08 17:51:00,25.6,22.8,30.03,North,360,4.1,5.8,89,0.00,-SN,,0.25,WeatherDisplay:10.37,2013-02-08 22:51:00,
2013-02-08 17:56:00,25.7,22.9,30.04,NW,319,4.3,6.9,89,0.00,-SN,,0.25,WeatherDisplay:10.37,2013-02-08 22:56:00,
2013-02-08 18:01:00,25.7,22.9,30.04,NNW,342,6.1,8.1,89,0.00,-SN,,0.25,WeatherDisplay:10.37,2013-02-08 23:01:00,
2013-02-08 18:06:00,25.8,23.0,30.04,NW,311,6.0,9.2,89,0.00,-SN,,0.25,WeatherDisplay:10.37,2013-02-08 23:06:00,
2013-02-08 18:11:00,25.8,23.0,30.05,North,360,3.6,7.0,89,0.00,-SN,,0.25,WeatherDisplay:10.37,2013-02-08 23:11:00,
2013-02-08 18:16:00,25.9,23.1,30.05,NNW,333,6.7,10.4,89,0.00,-SN,,0.25,WeatherDisplay:10.37,2013-02-08 23:16:00,
2013-02-08 18:21:00,26.0,23.2,30.05,NW,304,3.4,5.8,89,0.00,-SN,,0.25,WeatherDisplay:10.37,2013-02-08 23:21:00,
2013-02-08 18:27:00,26.1,23.3,30.06,NNW,335,5.5,10.4,89,0.00,-SN,,0.25,WeatherDisplay:10.37,2013-02-08 23:27:00,
2013-02-08 18:32:00,26.1,23.3,30.06,NNW,336,5.8,6.0,89,0.00,-SN,,0.25,WeatherDisplay:10.37,2013-02-08 23:32:00,
2013-02-08 18:37:00,26.2,23.4,30.06,North,351,5.8,9.2,89,0.00,-SN,,0.25,WeatherDisplay:10.37,2013-02-08 23:37:00,
2013-02-08 18:42:00,26.2,23.4,30.06,NW,316,4.3,9.2,89,0.00,-SN,,0.25,WeatherDisplay:10.37,2013-02-08 23:42:00,
2013-02-08 18:47:00,26.2,23.4,30.06,NNW,337,6.6,11.5,89,0.00,-SN,,0.25,WeatherDisplay:10.37,2013-02-08 23:47:00,
2013-02-08 18:52:00,26.3,23.5,30.07,NNW,335,5.2,12.0,89,0.00,-SN,,0.25,WeatherDisplay:10.37,2013-02-08 23:52:00,
2013-02-08 18:57:00,26.3,23.5,30.07,NNW,336,5.8,10.4,89,0.00,-SN,,0.25,WeatherDisplay:10.37,2013-02-08 23:57:00,
2013-02-08 19:02:00,26.3,23.5,30.07,NW,323,4.5,5.8,89,0.00,-SN,,0.25,WeatherDisplay:10.37,2013-02-09 00:02:00,
2013-02-08 19:07:00,26.4,23.6,30.08,NW,323,5.2,11.5,89,0.00,-SN,,0.25,WeatherDisplay:10.37,2013-02-09 00:07:00,
2013-02-08 19:12:00,26.5,23.7,30.08,NW,305,6.1,11.5,89,0.00,-SN,,0.25,WeatherDisplay:10.37,2013-02-09 00:12:00,
2013-02-08 19:17:00,26.5,23.7,30.08,NNW,342,5.4,8.0,89,0.00,-SN,,0.25,WeatherDisplay:10.37,2013-02-09 00:17:00,
2013-02-08 19:22:00,26.5,23.2,30.09,North,360,9.2,13.8,87,0.00,-SN,,0.25,WeatherDisplay:10.37,2013-02-09 00:22:00,
2013-02-08 19:27:00,26.4,23.1,30.09,North,350,6.0,11.5,87,0.00,-SN,,0.25,WeatherDisplay:10.37,2013-02-09 00:27:00,
2013-02-08 19:32:00,26.4,23.3,30.09,NNW,338,5.2,11.5,88,0.00,-SN,,0.25,WeatherDisplay:10.37,2013-02-09 00:32:00,
2013-02-08 19:37:00,26.3,23.2,30.09,NW,323,8.6,11.5,88,0.00,-SN,,0.25,WeatherDisplay:10.37,2013-02-09 00:37:00,
2013-02-08 19:42:00,26.3,23.2,30.09,NNW,347,6.5,9.2,88,0.00,-SN,,0.25,WeatherDisplay:10.37,2013-02-09 00:42:00,
2013-02-08 19:47:00,26.3,23.2,30.09,NW,304,7.1,14.0,88,0.00,-SN,,0.25,WeatherDisplay:10.37,2013-02-09 00:47:00,
2013-02-08 19:52:00,26.2,23.4,30.10,NNW,332,7.7,8.1,89,0.00,-SN,,0.25,WeatherDisplay:10.37,2013-02-09 00:52:00,
2013-02-08 19:57:00,26.2,23.4,30.10,NNW,338,7.3,8.1,89,0.00,-SN,,0.25,WeatherDisplay:10.37,2013-02-09 00:57:00,
2013-02-08 20:02:00,26.3,23.5,30.10,NW,309,6.5,15.0,89,0.00,-SN,,0.25,WeatherDisplay:10.37,2013-02-09 01:02:00,
2013-02-08 20:07:00,26.4,23.6,30.10,NNW,336,8.0,11.5,89,0.00,-SN,,0.25,WeatherDisplay:10.37,2013-02-09 01:07:00,
2013-02-08 20:12:00,26.4,23.6,30.10,NNW,342,7.8,15.0,89,0.00,-SN,,0.25,WeatherDisplay:10.37,2013-02-09 01:12:00,
2013-02-08 20:17:00,26.5,23.7,30.11,NNW,335,9.0,21.9,89,0.00,-SN,,0.25,WeatherDisplay:10.37,2013-02-09 01:17:00,
2013-02-08 20:22:00,26.5,23.4,30.11,NW,307,7.8,11.5,88,0.00,-SN,,0.25,WeatherDisplay:10.37,2013-02-09 01:22:00,
2013-02-08 20:27:00,26.5,23.4,30.11,North,360,10.9,19.6,88,0.00,-SN,,0.25,WeatherDisplay:10.37,2013-02-09 01:27:00,
2013-02-08 20:32:00,26.5,23.2,30.11,North,360,5.4,12.7,87,0.00,-SN,,0.25,WeatherDisplay:10.37,2013-02-09 01:32:00,
2013-02-08 20:37:00,26.5,23.2,30.12,NW,309,6.9,11.5,87,0.00,-SN,,0.25,WeatherDisplay:10.37,2013-02-09 01:37:00,
2013-02-08 20:42:00,26.5,22.9,30.12,NNE,21,8.6,12.7,86,0.00,-SN,,0.25,WeatherDisplay:10.37,2013-02-09 01:42:00,
2013-02-08 20:47:00,26.4,22.8,30.12,NNW,328,8.2,9.2,86,0.00,-SN,,0.25,WeatherDisplay:10.37,2013-02-09 01:47:00,
2013-02-08 20:52:00,26.4,22.8,30.13,NNE,27,7.2,8.1,86,0.00,-SN,,0.25,WeatherDisplay:10.37,2013-02-09 01:52:00,
2013-02-08 20:57:00,26.4,22.8,30.13,NW,323,6.5,10.4,86,0.00,-SN,,0.25,WeatherDisplay:10.37,2013-02-09 01:57:00,
2013-02-08 21:02:00,26.4,22.8,30.13,North,9,6.0,10.4,86,0.00,-SN,,0.25,WeatherDisplay:10.37,2013-02-09 02:02:00,
2013-02-08 21:07:00,26.4,22.8,30.13,NW,319,4.9,9.0,86,0.00,-SN,,0.25,WeatherDisplay:10.37,2013-02-09 02:07:00,
2013-02-08 21:12:00,26.3,22.7,30.14,NNW,342,6.9,9.2,86,0.00,-SN,,0.25,WeatherDisplay:10.37,2013-02-09 02:12:00,
2013-02-08 21:17:00,26.3,22.7,30.14,NNW,335,6.2,7.0,86,0.00,-SN,,0.25,WeatherDisplay:10.37,2013-02-09 02:17:00,
2013-02-08 21:22:00,26.2,22.6,30.14,NW,319,6.3,9.2,86,0.00,-SN,,0.25,WeatherDisplay:10.37,2013-02-09 02:22:00,
2013-02-08 21:27:00,26.1,22.5,30.14,NNW,333,9.0,11.5,86,0.00,-SN,,0.25,WeatherDisplay:10.37,2013-02-09 02:27:00,
2013-02-08 21:32:00,26.0,22.4,30.15,North,350,6.1,11.5,86,0.00,-SN,,0.25,WeatherDisplay:10.37,2013-02-09 02:32:00,
2013-02-08 21:37:00,25.9,22.6,30.15,North,9,7.2,9.0,87,0.00,-SN,,0.25,WeatherDisplay:10.37,2013-02-09 02:37:00,
2013-02-08 21:42:00,25.8,22.5,30.15,NNW,333,7.1,8.1,87,0.00,-SN,,0.25,WeatherDisplay:10.37,2013-02-09 02:42:00,
2013-02-08 21:47:00,25.7,22.4,30.15,NW,320,6.6,11.5,87,0.00,-SN,,0.25,WeatherDisplay:10.37,2013-02-09 02:47:00,
2013-02-08 21:52:00,25.6,22.3,30.16,NNW,348,10.0,15.0,87,0.00,-SN,,0.25,WeatherDisplay:10.37,2013-02-09 02:52:00,
2013-02-08 21:57:00,25.6,22.3,30.16,North,351,7.7,15.0,87,0.00,-SN,,0.25,WeatherDisplay:10.37,2013-02-09 02:57:00,
2013-02-08 22:02:00,25.4,21.8,30.16,NNW,343,8.4,16.1,86,0.00,OVC,,0.25,WeatherDisplay:10.37,2013-02-09 03:02:00,
2013-02-08 22:07:00,25.1,20.9,30.16,North,360,9.8,16.1,84,0.00,OVC,,0.25,WeatherDisplay:10.37,2013-02-09 03:07:00,
2013-02-08 22:12:00,24.7,20.8,30.17,NNW,341,5.9,10.4,85,0.00,OVC,,0.25,WeatherDisplay:10.37,2013-02-09 03:12:00,
2013-02-08 22:17:00,24.5,20.6,30.17,NNW,345,9.1,17.3,85,0.00,OVC,,0.25,WeatherDisplay:10.37,2013-02-09 03:17:00,
2013-02-08 22:22:00,24.3,20.7,30.18,NNW,336,9.4,12.7,86,0.00,OVC,,0.25,WeatherDisplay:10.37,2013-02-09 03:22:00,
2013-02-08 22:27:00,24.1,20.5,30.18,NNW,340,5.7,11.5,86,0.00,OVC,,0.25,WeatherDisplay:10.37,2013-02-09 03:27:00,
2013-02-08 22:32:00,24.0,20.4,30.18,NW,306,6.9,8.1,86,0.00,OVC,,0.25,WeatherDisplay:10.37,2013-02-09 03:32:00,
2013-02-08 22:37:00,24.0,20.4,30.18,North,350,7.0,11.0,86,0.00,OVC,,0.25,WeatherDisplay:10.37,2013-02-09 03:37:00,
2013-02-08 22:42:00,23.9,20.3,30.18,NNW,329,4.5,9.2,86,0.00,OVC,,0.25,WeatherDisplay:10.37,2013-02-09 03:42:00,
2013-02-08 22:47:00,23.8,19.9,30.18,NNW,335,10.6,19.6,85,0.00,OVC,,0.25,WeatherDisplay:10.37,2013-02-09 03:47:00,
2013-02-08 22:52:00,23.6,19.8,30.18,NNW,338,7.2,17.0,85,0.00,OVC,,0.25,WeatherDisplay:10.37,2013-02-09 03:52:00,
2013-02-08 22:57:00,23.5,19.9,30.19,NNW,341,8.9,18.4,86,0.00,OVC,,0.25,WeatherDisplay:10.37,2013-02-09 03:57:00,
2013-02-08 23:02:00,23.3,19.7,30.19,NNW,335,10.5,19.6,86,0.00,OVC,,0.25,WeatherDisplay:10.37,2013-02-09 04:02:00,
2013-02-08 23:07:00,23.2,19.4,30.19,NW,309,9.3,10.4,85,0.00,OVC,,0.25,WeatherDisplay:10.37,2013-02-09 04:07:00,
2013-02-08 23:12:00,23.0,19.2,30.20,NNW,341,7.2,15.0,85,0.00,OVC,,0.25,WeatherDisplay:10.37,2013-02-09 04:12:00,
2013-02-08 23:17:00,22.9,19.3,30.20,North,355,5.9,8.1,86,0.00,OVC,,0.25,WeatherDisplay:10.37,2013-02-09 04:17:00,
2013-02-08 23:22:00,22.9,19.3,30.20,NNW,343,5.4,12.7,86,0.00,OVC,,0.25,WeatherDisplay:10.37,2013-02-09 04:22:00,
2013-02-08 23:27:00,22.8,19.5,30.20,North,5,4.5,8.1,87,0.00,OVC,,0.25,WeatherDisplay:10.37,2013-02-09 04:27:00,
2013-02-08 23:32:00,22.8,19.5,30.20,NNW,333,6.3,8.0,87,0.00,OVC,,0.25,WeatherDisplay:10.37,2013-02-09 04:32:00,
2013-02-08 23:37:00,22.7,19.4,30.21,NNW,334,3.3,5.0,87,0.00,OVC,,0.25,WeatherDisplay:10.37,2013-02-09 04:37:00,
2013-02-08 23:42:00,22.7,19.4,30.21,North,360,3.7,6.9,87,0.00,OVC,,0.25,WeatherDisplay:10.37,2013-02-09 04:42:00,
2013-02-08 23:47:00,22.7,19.4,30.21,NW,323,5.3,6.0,87,0.00,OVC,,0.25,WeatherDisplay:10.37,2013-02-09 04:47:00,
2013-02-08 23:52:00,22.5,18.9,30.21,West,279,5.3,12.7,86,0.00,OVC,,0.25,WeatherDisplay:10.37,2013-02-09 04:52:00,
2013-02-08 23:57:00,22.5,19.2,30.22,NNW,336,5.3,6.9,87,0.00,OVC,,0.25,WeatherDisplay:10.37,2013-02-09 04:57:00,